Location: Eichstetten
(48.0943°N, 7.7424°E)
Time: 07:23:13
(UTC+00:00)

Daily predictions for brighter satellites

Satellite Brightness Start Highest point End
(mag) Time Altitude Azimuth Time Altitude Azimuth Time Altitude Azimuth
CZ-4B R/B 3.2 16:38:33 10° SSE 16:44:04 73° ENE 16:49:42 10° NNW
SL-24 R/B 4.2 16:40:17 10° SSE 16:44:35 66° ENE 16:49:12 10° N
AQUARIUS 4.1 16:44:27 10° SSE 16:48:55 76° ENE 16:53:26 10° N
PAYLOAD B 4.5 16:43:34 10° SSE 16:49:04 77° WSW 16:54:37 10° NNW
Cosmos 2297 Rocket 4.1 16:45:19 10° W 16:49:45 23° NW 16:54:13 10° N
Cosmos 1603 3.9 16:44:35 10° NNW 16:50:20 84° WSW 16:56:04 10° SSE
Meteor 2-10 Rocket 4.3 16:45:58 10° N 16:50:59 33° ENE 16:55:48 10° SE
Cosmos 1606 Rocket 3.7 16:52:05 10° N 16:56:25 54° ENE 17:00:44 10° SSE
CZ-2D R/B 4.1 16:53:28 10° SE 16:56:48 28° ENE 17:00:09 10° N
H-2A R/B 2.1 16:53:44 10° NNE 16:58:12 69° ESE 17:02:33 10° S
USA 234 3.9 16:53:22 10° ENE 16:59:23 41° N 17:05:26 10° WNW
YAOGAN 1 3.8 16:56:28 10° ESE 16:59:36 20° ENE 17:02:45 10° NNE
Cosmos 1892 Rocket 4.3 16:55:49 10° SSE 16:59:38 31° E 17:03:28 10° NNE
ATLAS 5 CENTAUR R/B 1.4 16:57:09 10° SW 17:01:10 88° SE 17:05:45 10° NE
FengYun 1-2 T 4.2 16:56:03 10° SSE 17:01:37 82° ENE 17:07:15 10° NNW
CZ-4C R/B 3.3 16:58:57 10° N 17:02:05 61° WNW 17:05:11 10° SSW
Tsikada Rocket 4.5 16:56:57 10° SSW 17:03:15 68° WNW 17:09:29 10° N
NOAA 12 4.4 16:58:22 10° S 17:03:34 72° WSW 17:08:50 10° NNW
SL-14 R/B 3.2 17:01:09 10° S 17:05:01 88° E 17:08:57 10° N
Helios 1A Rocket 4.4 17:02:39 10° ESE 17:05:28 18° ENE 17:08:19 10° NNE
RESURS DK-1 3.1 17:02:34 10° SW 17:06:38 54° WNW 17:10:43 10° NNE
MOS 1 Rocket 4.1 17:03:50 10° NE 17:07:28 26° E 17:11:04 10° SSE
ATLAS 3B R/B 3.8 17:01:27 10° NW 17:08:09 52° WSW 17:15:06 10° SSE
Cosmos 2228 2.9 17:04:08 10° N 17:08:25 80° ENE 17:12:42 10° SSE
NOSS 7 (E) 4.5 17:05:50 10° SW 17:09:31 76° NW 17:12:25 12° NE
Cosmos 2142 Rocket 4.4 17:04:16 10° N 17:10:29 80° E 17:16:37 10° SSE
SKYMED 2 4.1 17:09:25 10° NNE 17:13:31 39° E 17:17:34 10° SSE
Meteor 2-5 Rocket 3.7 17:08:21 10° S 17:13:56 88° W 17:19:30 10° N
CZ-4C R/B 3.2 17:09:51 10° WSW 17:14:47 41° NW 17:20:44 10° NE
Cosmos 1538 Rocket 4.0 17:09:49 10° NNW 17:14:55 56° ENE 17:19:59 10° SE
Aureole 3 4.2 17:12:24 10° NNE 17:15:08 20° ENE 17:17:34 10° ESE
CZ-3B R/B 2.1 17:14:26 10° NW 17:16:34 36° NNE 17:20:09 13° E
SJ 16-02 2.6 17:13:32 10° SSE 17:16:52 21° E 17:18:57 16° ENE
Nadezhda 4 Rocket 4.5 17:12:43 10° SSE 17:18:21 37° E 17:23:58 10° NNE
Cosmos 1777 Rocket 4.1 17:14:53 10° S 17:20:01 57° ESE 17:25:12 10° NNE
Cosmos 2263 Rocket 2.5 17:16:18 10° SW 17:21:57 68° WNW 17:27:38 10° NNE
Cosmos 1455 3.0 17:22:28 10° N 17:25:51 29° ENE 17:29:14 10° SE
Cosmos 2058 Rocket 3.1 17:23:25 10° N 17:27:53 58° ENE 17:32:19 10° SSE
Cosmos 1300 3.7 17:26:23 10° NNW 17:30:06 49° W 17:33:47 10° S
X-37B 2.7 17:30:03 10° SSW 17:32:09 16° SSE 17:33:14 14° SE
ARGOS 3.7 17:33:05 10° SE 17:37:52 35° ENE 17:42:42 10° N
Okean 1-7 Rocket 3.7 17:36:39 10° S 17:41:06 56° E 17:45:35 10° NNE
CREW DRAGON DEMO-1 DEB 2.9 17:38:20 10° WNW 17:41:12 53° NNE 17:41:52 40° ENE
Lacrosse 5 1.8 17:36:11 10° NW 17:41:14 70° NNE 17:45:00 18° ESE
NOSS 3-1 (C) 4.3 17:34:39 10° NW 17:41:26 44° NE 17:47:11 18° E
Cosmos 1726 Rocket 4.0 17:39:04 10° NNW 17:43:24 63° W 17:47:43 10° S
ERS-2 2.3 17:42:03 21° NE 17:44:13 47° E 17:47:43 10° S
ISS -2.6 17:41:28 10° SSW 17:44:22 28° SE 17:45:00 26° ESE
Cosmos 1939 Rocket 3.6 17:40:53 10° S 17:44:57 58° W 17:49:00 10° NNW
CZ-2C R/B 3.8 17:45:49 23° E 17:45:49 23° E 17:50:07 10° SE
PSLV R/B 4.3 17:43:31 16° NNE 17:46:34 44° E 17:50:36 10° S
CSL-04 Debris 4.5 17:42:53 10° SE 17:47:55 42° ENE 17:52:59 10° N
Meteor 1-24 Rocket 4.2 17:42:51 10° SSW 17:48:07 59° WNW 17:53:23 10° N
COSMOS 2455 2.8 17:43:18 10° SSW 17:49:18 75° ESE 17:54:02 17° NE
Cosmos 1626 Rocket 4.0 17:48:18 10° SSE 17:52:21 38° E 17:54:00 28° NE
Cosmos 1844 4.0 17:49:01 10° S 17:54:20 44° ESE 17:57:10 25° NE
Cosmos 1833 Rocket 3.9 17:50:06 10° N 17:54:29 22° NE 17:54:41 22° NE
Cosmos 2026 Rocket 4.5 17:50:07 10° SSE 17:55:29 33° E 18:00:56 10° NNE
IRS-1C Rocket 4.1 17:50:28 10° SSE 17:55:44 84° WSW 18:01:02 10° NNW
Cosmos 2082 Rocket 3.8 17:52:37 10° N 17:55:56 16° NNE 17:55:56 16° NNE
CZ-4 R/B 1.3 17:53:06 10° SSE 17:57:12 78° ENE 18:01:16 10° N
USA 229 DEB 4.3 17:51:37 10° NW 17:58:22 42° NNE 18:01:49 27° E
USA 229 4.3 17:51:43 10° NW 17:58:27 41° NNE 18:01:52 27° E
NOAA 15 4.5 17:53:20 10° SSE 17:58:33 73° ENE 18:03:50 10° N
COSMO-SKYMED 1 2.8 17:57:22 10° N 18:01:43 70° WNW 18:06:01 10° SSW
SL-08 RB Rocket 4.3 18:05:15 35° NE 18:05:15 35° NE 18:08:49 10° N
USA 267 4.2 18:04:12 25° ESE 18:05:38 27° SE 18:11:02 10° S
CZ-4B R/B 2.9 18:08:40 10° N 18:11:49 36° WNW 18:14:54 10° SW
Okean-O 2.6 18:08:55 10° SSE 18:13:21 81° WSW 18:17:49 10° NNW
NOSS 3-1 (A) 4.3 18:07:10 10° NW 18:13:59 45° NE 18:16:57 33° E
CZ-2C R/B 3.8 18:09:43 10° S 18:14:55 58° W 18:20:27 10° NNW
Cosmos 1844 Rocket 2.6 18:10:37 10° SSW 18:16:16 78° ESE 18:19:24 28° NNE
Cosmos 923 Rocket 3.9 18:11:17 10° NNW 18:16:40 82° ENE 18:21:59 10° SSE
H-2A R/B 1.9 18:12:19 10° SSE 18:17:18 87° WSW 18:22:27 10° NNW
Cosmos 1689 Rocket 3.6 18:20:01 28° SSW 18:20:01 28° SSW 18:21:30 10° SSW
Meteor 1-21 Rocket 4.0 18:13:23 10° S 18:18:53 77° E 18:24:27 10° NNE
Aureole 2 Rocket 2.6 18:16:38 10° SW 18:19:28 57° W 18:19:28 57° W
ATLAS 2AS CENTAUR R/B 4.2 18:13:15 10° W 18:20:17 33° NNW 18:25:31 16° NNE
Cosmos 2195 Rocket 4.5 18:14:45 10° S 18:20:56 61° E 18:27:11 10° NNE
Cosmos 158 Rocket 4.0 18:16:42 10° NNW 18:22:03 84° WSW 18:27:27 10° SSE
Meteor 2-8 Rocket 4.3 18:16:22 10° N 18:22:26 64° ENE 18:28:29 10° SSE
Cosmos 1680 Rocket 3.3 18:18:48 10° NNW 18:24:04 73° ENE 18:26:36 31° SE
Cosmos 1898 Rocket 4.1 18:19:42 10° S 18:23:42 38° SE 18:23:42 38° SE
Cosmos 1627 Rocket 4.4 18:24:44 10° S 18:30:48 64° E 18:36:59 10° NNE
SAR-Lupe-4 4.1 18:31:27 50° NNW 18:32:00 57° WNW 18:35:30 10° SSW
Cosmos 2098 Rocket 4.4 18:25:19 10° SSE 18:32:10 55° E 18:39:23 10° NNE
Cosmos 1602 Rocket 3.7 18:28:03 10° S 18:31:34 57° SSE 18:31:34 57° SSE
Cosmos 1818 3.5 18:27:50 10° SW 18:33:16 88° NW 18:34:52 48° NE
YAOGAN 1 3.4 18:31:10 10° S 18:35:22 50° W 18:39:36 10° NNW
Cosmos 1428 Rocket 4.4 18:29:37 10° S 18:35:48 65° E 18:42:03 10° NNE
CSL-04 Rocket 3.6 18:33:44 10° SSE 18:39:08 84° WSW 18:44:40 10° NNW
Helios 1A Rocket 3.7 18:36:12 10° S 18:40:15 53° W 18:44:20 10° NNW
USA 234 3.4 18:40:20 47° ENE 18:41:45 56° NNE 18:48:08 10° NW
Cosmos 1092 Rocket 3.9 18:39:43 10° S 18:45:56 84° W 18:52:08 10° N
Iridium 4 Rocket 3.6 18:40:36 10° N 18:46:22 85° W 18:51:41 10° S
ATLAS 5 CENTAUR R/B 3.5 18:43:07 10° WNW 18:46:29 22° NNW 18:47:38 20° N
Cosmos 1812 Rocket 3.9 18:45:05 10° NNW 18:48:54 62° NW 18:48:54 62° NW
Cosmos 2344 4.2 18:44:42 10° NW 18:53:48 75° NE 18:59:35 36° SE
SJ 16-02 2.3 18:50:56 10° SW 18:55:10 44° WNW 18:56:00 39° NNW
Cosmos 2112 Rocket 4.2 18:56:16 10° NNW 19:01:30 66° WSW 19:02:18 57° SSW
CZ-4C R/B 4.2 19:00:39 10° WNW 19:05:06 21° N 19:06:30 20° N
X-37B 3.9 19:05:16 10° WSW 19:05:31 12° WSW 19:05:31 12° WSW
COSMOS 2406 3.8 19:10:39 10° NNW 19:14:49 49° NNW 19:14:49 49° NNW
ARGOS 4.4 19:13:06 10° SSW 19:18:05 39° W 19:23:06 10° NNW
ISS -0.4 19:17:37 10° WSW 19:17:58 12° WSW 19:17:58 12° WSW
Lacrosse 5 3.4 19:19:34 10° WNW 19:23:53 29° SW 19:24:15 29° SW
CZ-2C R/B 3.3 19:27:19 54° WSW 19:27:19 54° WSW 19:31:58 10° SSW
NOSS 3-1 (C) 4.2 19:25:24 10° NW 19:32:51 68° SW 19:34:39 54° S
COSMOS 2455 4.4 19:30:39 10° W 19:35:50 29° NW 19:37:13 26° NNW
Cosmos 1553 Rocket 4.3 19:30:23 10° NNW 19:36:14 63° WNW 19:36:14 63° WNW
Cosmos 1833 Rocket 4.0 19:33:27 10° NNW 19:36:25 33° NNW 19:36:25 33° NNW
USA 281 4.4 19:43:33 32° N 19:43:33 32° N 19:46:54 10° NNW
Cosmos 2082 Rocket 4.0 19:35:44 10° NNW 19:37:48 23° NNW 19:37:48 23° NNW
USA 267 4.0 19:51:34 44° SW 19:51:34 44° SW 19:55:50 10° SW
USA 229 DEB 4.1 19:42:34 10° NW 19:49:18 67° W 19:49:18 67° W
USA 229 4.1 19:42:40 10° NW 19:49:21 67° W 19:49:21 67° W
NOSS 3-1 (A) 4.4 19:57:59 10° NW 20:04:26 62° W 20:04:26 62° W
ATLAS 2AS CENTAUR R/B 4.5 20:07:29 10° NW 20:12:56 24° N 20:12:56 24° N
